Tracking 29932 objects as of 3-Dec-2024
HD Live streaming from Space Station
objects crossing your sky now

STARLINK-31889

Track STARLINK-31889 now!
10-day predictions
STARLINK-31889 is classified as:


NORAD ID: 59847
Int'l Code: 2024-097N
Perigee: 450.5 km
Apogee: 451.9 km
Inclination: 43.0 °
Period: 93.5 minutes
Semi major axis: 6822 km
RCS: Unknown
Launch date: May 23, 2024
Source: United States (US)
Launch site: AIR FORCE EASTERN TEST RANGE (AFETR)
Your satellite tracking list
Your tracking list is empty




NASA's NSSDC Master Catalog

Two Line Element Set (TLE):
1 59847U 24097N   24338.81711358 -.00000341  00000-0 -89630-6 0  9991
2 59847  43.0030   8.2621 0001050 227.8446 132.2321 15.40691797 31279
Source of the keplerian elements: AFSPC